DW8424 Weather Reports


time (UTC)temp
C
wind
direction
speed
KPH
gust
KPH
rain 1hr
cm
rain 24hr
cm
rain mn
cm
humidity
%
barometer
mb
20260506104524 10 88 4.8 12.9 0.00 0.03 0.00 67 1016.4
20260506103022 9 53 4.8 12.9 0.00 0.03 0.00 65 1016.3
20260506101521 9 100 3.2 14.5 0.00 0.03 0.00 66 1016.3
20260506100019 8 140 4.8 19.3 0.00 0.03 0.00 69 1016.2
20260506094518 8 72 3.2 17.7 0.00 0.03 0.00 69 1016.4
20260506093017 8 113 3.2 16.1 0.00 0.03 0.00 72 1016.4
20260506091516 8 14 3.2 14.5 0.00 0.03 0.00 72 1016.2
20260506090015 8 103 4.8 16.1 0.00 0.03 0.00 71 1016.3
20260506084514 8 181 6.4 16.1 0.00 0.03 0.00 72 1016.2
20260506083013 8 89 4.8 11.3 0.00 0.03 0.00 72 1016.1
20260506081510 8 11 4.8 12.9 0.00 0.03 0.00 76 1016.1
20260506073009 7 44 3.2 12.9 0.00 0.03 0.00 81 1015.8
20260506071508 6 15 4.8 12.9 0.00 0.03 0.00 81 1015.7
20260506061513 8 100 4.8 14.5 0.00 0.03 0.00 76 1015.2
20260506044551 6 307 4.8 12.9 0.00 0.03 0.00 81 1015.0
20260506043045 6 193 4.8 16.1 0.00 0.03 0.00 82 1015.2
20260506041548 6 347 4.8 14.5 0.00 0.03 0.00 83 1015.1
20260506040057 6 147 1.6 12.9 0.00 0.03 0.00 84 1015.2
20260506034548 6 203 6.4 12.9 0.00 0.03 0.00 85 1015.2
20260506033042 6 25 1.6 8.0 0.00 0.03 0.00 84 1015.2
20260506031553 6 111 1.6 11.3 0.00 0.03 0.00 84 1015.2
20260506030039 5 121 3.2 11.3 0.00 0.03 0.00 84 1015.3
20260506024538 5 6 4.8 14.5 0.00 0.03 0.00 85 1015.2
20260506023036 6 321 4.8 12.9 0.00 0.03 0.00 85 1015.2
20260506021534 6 127 1.6 6.4 0.00 0.03 0.00 85 1015.2
20260506020032 6 354 1.6 11.3 0.00 0.03 0.00 84 1015.3
20260506014532 6 200 3.2 14.5 0.00 0.03 0.00 84 1015.4
20260506013028 6 309 4.8 12.9 0.00 0.03 0.00 85 1015.5
20260506011529 6 71 6.4 17.7 0.00 0.03 0.00 84 1015.5
20260506010026 6 314 4.8 16.1 0.00 0.03 0.00 83 1015.5
20260506004527 6 360 8.0 17.7 0.00 0.03 0.00 83 1015.5
20260506003021 6 6 6.4 14.5 0.00 0.03 0.00 86 1015.6
20260506001518 6 36 3.2 11.3 0.00 0.03 0.00 85 1015.7
20260506000018 6 1 1.6 8.0 0.00 0.03 0.00 85 1015.7
20260505234514 6 3 4.8 11.3 0.00 0.03 0.00 85 1015.8
20260505233010 6 39 6.4 12.9 0.00 0.03 0.00 85 1016.0
20260505231508 6 349 3.2 16.1 0.00 0.03 0.00 86 1016.1
20260505230004 6 1 3.2 16.1 0.00 0.03 0.00 85 1016.1
20260505224502 6 334 3.2 11.3 0.00 0.03 0.03 86 1016.1
20260505223002 6 334 4.8 16.1 0.00 0.03 0.03 86 1016.0
20260505221603 6 73 6.4 17.7 0.00 0.03 0.03 86 1016.2
20260505220058 6 320 4.8 12.9 0.00 0.03 0.03 85 1016.1
20260505214600 6 352 6.4 20.9 0.00 0.03 0.03 86 1016.2
20260505213059 6 141 4.8 14.5 0.00 0.03 0.03 85 1016.0
20260505211610 6 88 4.8 20.9 0.00 0.03 0.03 86 1016.2
20260505204600 6 335 6.4 19.3 0.00 0.03 0.03 85 1016.2
20260505203055 7 338 4.8 16.1 0.00 0.03 0.03 86 1016.2
20260505201557 6 82 6.4 22.5 0.00 0.03 0.03 85 1016.2
20260505200050 6 319 8.0 20.9 0.00 0.03 0.03 85 1016.1
20260505194605 7 79 4.8 16.1 0.00 0.03 0.03 85 1016.1
20260505193045 7 53 6.4 16.1 0.00 0.03 0.03 85 1015.9
20260505191544 7 29 8.0 22.5 0.00 0.03 0.03 84 1016.0
20260505190045 7 44 9.7 17.7 0.00 0.03 0.03 84 1016.0
20260505184540 7 291 8.0 14.5 0.00 0.03 0.03 84 1016.0
20260505183041 7 211 8.0 20.9 0.00 0.03 0.03 83 1015.9
20260505181542 8 129 4.8 20.9 0.00 0.03 0.03 81 1015.7
20260505180039 8 360 4.8 17.7 0.00 0.03 0.03 82 1015.7
20260505174540 8 18 9.7 24.1 0.00 0.03 0.03 83 1015.8
20260505173035 8 310 6.4 16.1 0.00 0.03 0.03 82 1015.7
20260505171534 8 27 9.7 22.5 0.00 0.03 0.03 83 1015.7
20260505170031 8 11 11.3 22.5 0.00 0.03 0.03 84 1015.6
20260505164528 8 319 6.4 22.5 0.00 0.03 0.03 84 1015.6
20260505163027 8 12 8.0 19.3 0.00 0.03 0.03 84 1015.7
20260505161528 9 336 6.4 22.5 0.00 0.03 0.03 84 1015.5
20260505153024 10 336 9.7 19.3 0.00 0.03 0.03 78 1015.4
20260505151524 10 1 6.4 24.1 0.00 0.03 0.03 79 1015.2
20260505123011 9 8 6.4 16.1 0.03 0.03 0.03 87 1014.8
20260505121512 10 307 4.8 19.3 0.00 0.00 0.00 86 1014.7
20260505120011 10 23 8.0 17.7 0.00 0.00 0.00 84 1014.6
20260505114508 11 29 9.7 20.9 0.00 0.00 0.00 81 1014.5
20260505113007 11 3 4.8 12.9 0.00 0.00 0.00 81 1014.4
20260505111512 11 325 8.0 19.3 0.00 0.00 0.00 80 1014.4